CAPELLA-13 (ACADIA-3) (60419 NORAD) Tracking and Keplerian Element Data

This shows tracking and keplerian element data for the satellite.

Feedback or suggestion? Click here.




ElementValue
Catalog60419
NameCAPELLA-13 (ACADIA-3)
Epoch Orbit916
Epoch Day286.18557438
Epoch Year2024
RAAN213.2448
Inclination53.0058
Eccentricity0.0005907
Argument of Perigee84.5104
Mean Anonmoly275.655
Mean Motion14.87571927
Decay Rate0.00014051
L11 60419U 24142A 24286.18557438 .00014051 00000+0 15550-2 0 9994
L22 60419 53.0058 213.2448 0005907 84.5104 275.6550 14.87571927 9167



Live tracking and technical data element details for CAPELLA-13 (ACADIA-3) (NORAD 60419). CAPELLA-13 (ACADIA-3) can be tracked NOW for your location showing map with azimuth and elevation plus other details from your city location.







IsCatalogInMostPopularTable: catalog: 60419, numindb: 4
Update: records affected: 1



GetName: 60419 CAPELLA-13 (ACADIA-3)

Hit Count: updated at: Fri, 06 Dec 2024 09:42:48 GMT